Tracking 31027 objects as of 19-Jul-2025
HD Live streaming from Space Station
objects crossing your sky now

CZ-2C R/B

Track CZ-2C R/B now!
10-day predictions


NORAD ID: 45722
Int'l Code: 2020-036B
Perigee: 705.9 km
Apogee: 776.5 km
Inclination: 98.7 °
Period: 99.5 minutes
Semi major axis: 7112 km
RCS: Unknown
Launch date: June 10, 2020
Source: People's Republic of China (PRC)
Launch site: Taiyaun Space Center, China (TSC)

Note: This is a ROCKET BODY
Your satellite tracking list
IRIDIUM 106
Track 1 satellite(s)




NASA's NSSDC Master Catalog

Two Line Element Set (TLE):
1 45722U 20036B   25199.45450497  .00000088  00000-0  37023-4 0  9990
2 45722  98.7421 209.0310 0049663 221.3309 138.4120 14.47430012269446
Source of the keplerian elements: AFSPC